TimeICT,TemperatureF,Dew PointF,Humidity,Sea Level PressureIn,VisibilityMPH,Wind Direction,Wind SpeedMPH,Gust SpeedMPH,PrecipitationIn,Events,Conditions,WindDirDegrees,DateUTC
12:00 AM,82.4,75.2,79,29.80,4.3,WSW,8.1,-,N/A,,Mostly Cloudy,250,2013-09-30 17:00:00
12:30 AM,82.4,75.2,79,29.80,4.3,West,11.5,-,N/A,,Mostly Cloudy,260,2013-09-30 17:30:00
1:00 AM,83,75,72,29.76,5,West,11.5,,,,Mist,280,2013-09-30 18:00:00
1:00 AM,80.6,75.2,84,29.80,4.3,West,10.4,-,N/A,,Mostly Cloudy,280,2013-09-30 18:00:00
1:30 AM,80.6,75.2,84,29.80,4.3,West,6.9,-,N/A,,Mostly Cloudy,270,2013-09-30 18:30:00
2:00 AM,80.6,75.2,84,29.77,4.3,West,4.6,-,N/A,,Mostly Cloudy,260,2013-09-30 19:00:00
2:30 AM,80.6,73.4,79,29.77,4.3,West,10.4,-,N/A,,Mostly Cloudy,270,2013-09-30 19:30:00
3:00 AM,80.6,75.2,84,29.77,4.3,West,10.4,-,N/A,,Mostly Cloudy,270,2013-09-30 20:00:00
3:30 AM,80.6,75.2,84,29.77,4.3,WSW,5.8,-,N/A,,Mostly Cloudy,250,2013-09-30 20:30:00
4:00 AM,80.6,75.2,84,29.77,4.3,West,5.8,-,N/A,,Mostly Cloudy,270,2013-09-30 21:00:00
4:30 AM,80.6,75.2,84,29.77,4.3,SW,3.5,-,N/A,,Mostly Cloudy,230,2013-09-30 21:30:00
5:30 AM,80.6,75.2,84,29.77,4.3,West,9.2,-,N/A,,Mostly Cloudy,260,2013-09-30 22:30:00
6:00 AM,80.6,75.2,84,29.77,4.3,West,5.8,-,N/A,,Mostly Cloudy,260,2013-09-30 23:00:00
6:30 AM,80.6,75.2,84,29.80,4.3,West,6.9,-,N/A,,Mostly Cloudy,260,2013-09-30 23:30:00
7:00 AM,82,77,79,29.75,6,West,6.9,,,,Scattered Clouds,260,2013-10-01 00:00:00
7:00 AM,82.4,75.2,79,29.80,5.0,West,10.4,-,N/A,,Mostly Cloudy,260,2013-10-01 00:00:00
7:30 AM,82.4,75.2,79,29.80,5.0,West,11.5,-,N/A,,Mostly Cloudy,270,2013-10-01 00:30:00
8:00 AM,82.4,75.2,79,29.83,5.0,West,10.4,-,N/A,,Mostly Cloudy,280,2013-10-01 01:00:00
8:30 AM,84.2,77.0,79,29.83,3.1,West,6.9,-,N/A,Rain,Rain,260,2013-10-01 01:30:00
9:00 AM,80.6,75.2,84,29.83,5.0,SW,8.1,-,N/A,,Mostly Cloudy,220,2013-10-01 02:00:00
9:30 AM,84.2,75.2,74,29.83,5.0,WSW,8.1,-,N/A,,Mostly Cloudy,250,2013-10-01 02:30:00
10:00 AM,86.0,77.0,74,29.83,5.6,West,13.8,-,N/A,,Scattered Clouds,270,2013-10-01 03:00:00
10:30 AM,86.0,75.2,70,29.83,5.6,West,13.8,-,N/A,,Mostly Cloudy,260,2013-10-01 03:30:00
11:00 AM,86.0,77.0,74,29.83,5.6,West,12.7,-,N/A,,Mostly Cloudy,260,2013-10-01 04:00:00
11:30 AM,86.0,77.0,74,29.83,5.6,West,12.7,-,N/A,,Mostly Cloudy,270,2013-10-01 04:30:00
12:00 PM,86.0,77.0,74,29.83,5.6,West,13.8,-,N/A,,Mostly Cloudy,260,2013-10-01 05:00:00
12:30 PM,87.8,77.0,70,29.80,5.6,West,16.1,-,N/A,,Mostly Cloudy,280,2013-10-01 05:30:00
1:00 PM,88,78,65,29.78,6,WSW,6.9,,,,Mist,240,2013-10-01 06:00:00
1:00 PM,87.8,75.2,66,29.80,5.6,West,16.1,-,N/A,,Mostly Cloudy,280,2013-10-01 06:00:00
1:30 PM,87.8,69.8,55,29.80,5.6,West,16.1,-,N/A,,Mostly Cloudy,270,2013-10-01 06:30:00
2:00 PM,86.0,75.2,70,29.77,5.6,West,16.1,-,N/A,,Mostly Cloudy,280,2013-10-01 07:00:00
2:30 PM,86.0,75.2,70,29.77,5.6,West,16.1,-,N/A,,Mostly Cloudy,270,2013-10-01 07:30:00
3:00 PM,84.2,75.2,74,29.77,5.6,West,11.5,-,N/A,,Mostly Cloudy,280,2013-10-01 08:00:00
3:30 PM,86.0,75.2,70,29.74,5.6,West,16.1,-,N/A,,Mostly Cloudy,280,2013-10-01 08:30:00
4:00 PM,84.2,75.2,74,29.74,5.6,West,12.7,-,N/A,,Mostly Cloudy,280,2013-10-01 09:00:00
4:30 PM,84.2,75.2,74,29.74,5.6,West,11.5,-,N/A,,Mostly Cloudy,280,2013-10-01 09:30:00
5:00 PM,84.2,75.2,74,29.74,5.6,West,12.7,-,N/A,,Mostly Cloudy,280,2013-10-01 10:00:00
5:30 PM,84.2,75.2,74,29.77,5.6,West,11.5,-,N/A,,Mostly Cloudy,280,2013-10-01 10:30:00
6:00 PM,84.2,73.4,70,29.77,5.6,West,10.4,-,N/A,,Mostly Cloudy,280,2013-10-01 11:00:00
6:30 PM,82.4,75.2,79,29.77,5.6,WNW,8.1,-,N/A,,Partly Cloudy,290,2013-10-01 11:30:00
7:00 PM,85,76,69,29.74,6,Calm,Calm,,,,Mist,,2013-10-01 12:00:00
7:00 PM,82.4,75.2,79,29.80,5.6,West,5.8,-,N/A,,Mostly Cloudy,280,2013-10-01 12:00:00
7:30 PM,82.4,75.2,79,29.80,5.6,Variable,4.6,-,N/A,,Mostly Cloudy,0,2013-10-01 12:30:00
8:00 PM,82.4,75.2,79,29.80,5.6,Variable,2.3,-,N/A,,Mostly Cloudy,0,2013-10-01 13:00:00
8:30 PM,80.6,75.2,84,29.83,5.6,Variable,3.5,-,N/A,,Mostly Cloudy,0,2013-10-01 13:30:00
9:00 PM,82.4,75.2,79,29.83,5.6,West,6.9,-,N/A,,Mostly Cloudy,260,2013-10-01 14:00:00
9:30 PM,80.6,75.2,84,29.86,5.6,Variable,1.2,-,N/A,,Mostly Cloudy,0,2013-10-01 14:30:00
10:00 PM,80.6,75.2,84,29.86,5.6,WNW,5.8,-,N/A,,Mostly Cloudy,290,2013-10-01 15:00:00
10:30 PM,80.6,75.2,84,29.86,5.6,Calm,Calm,-,N/A,,Mostly Cloudy,0,2013-10-01 15:30:00
11:00 PM,80.6,75.2,84,29.89,5.6,West,4.6,-,N/A,,Mostly Cloudy,270,2013-10-01 16:00:00
11:30 PM,78.8,75.2,89,29.89,5.6,Variable,2.3,-,N/A,,Mostly Cloudy,0,2013-10-01 16:30:00